Regional Weather Roundup
Issued by NWS

Home | Current Version | Previous Version | Graphics & Text | Print | Product List | Glossary On
Versions: 1 2 3 4 5 6 7 8 9 10 11 12 13 14 15 16 17 18 19 20 21 22 23 24 25 26 27 28 29 30 31 32 33 34 35 36 37 38 39 40 41 42 43 44 45 46 47 48 49 50
336
ASUS45 KSLC 071610
RWRUT

UTAH REGIONAL WEATHER ROUNDUP
NATIONAL WEATHER SERVICE SALT LAKE CITY UT
900 AM MST SUN FEB 07 2016

UTZ001>011-023>025-071700-

NORTHERN UTAH

CITY           SKY/WX    TMP DP  RH WIND       PRES   REMARKS
BRIGHAM CITY   CLOUDY    13  10  87 CALM      30.59R VSB 1
HILL AFB       SUNNY     24  12  59 E13       30.56R WCI  12
LOGAN          CLOUDY    19  17  92 N5        30.56R FOG     WCI  12
OGDEN          SUNNY     22  17  81 S7        30.57R WCI  13
PROVO AIRPORT  MOSUNNY   10   7  85 CALM      30.58R FOG
SALT LAKE CITY MOSUNNY   26  20  77 SE7       30.58R WCI  18
VERNAL         CLOUDY    11   8  88 CALM      30.51R
WENDOVER       MOSUNNY   25  19  80 CALM      30.58R
HEBER CITY     MOSUNNY   10   7  85 CALM      30.54R FOG
WEST JORDAN    SUNNY     25  19  80 CALM      30.57R

$$

UTZ012>022-026-027-071700-

SOUTHERN/CENTRAL UTAH

CITY           SKY/WX    TMP DP  RH WIND       PRES   REMARKS
BLANDING       PTSUNNY   25  18  74 CALM      30.51R
BRYCE CANYON   MOSUNNY   13   5  70 W3        30.49R
CEDAR CITY     MOSUNNY   17  15  92 CALM      30.50R
DELTA          CLOUDY     4   2  89 CALM      30.58S VSB 1/2
HANKSVILLE     CLOUDY    16  14  93 N3        30.59R VSB 1/4
MILFORD        PTSUNNY    2  -1  88 N3        30.55R
MOAB/CYNLANDS  CLOUDY    13  10  88 N3        30.55R
PRICE          MOSUNNY   16  11  80 CALM      30.47R
ST GEORGE      MOSUNNY   34  25  69 CALM      30.49R
KANAB          SUNNY     37  27  65 E12       30.48S WCI  30

$$

REGIONAL REPORTS     COLORADO/ARIZONA

CITY           SKY/WX    TMP DP  RH WIND       PRES   REMARKS
CRAIG, CO      CLOUDY     2   0  91 CALM      30.48R
GRAND JUNCTION CLOUDY    12  11  95 E5        30.55R FOG     WCI   4
RIFLE          CLOUDY    12   7  80 E5        30.54R WCI   4
MONTROSE       CLOUDY    16  10  77 S5        30.54R WCI   9
CORTEZ         CLOUDY    22  12  65 NE5       30.43R WCI  16
PAGE, AZ       SUNNY     31  25  78 CALM      30.50R
GRAND CANYON   SUNNY     36  17  46 NE7       30.43R WCI  30
KINGMAN        SUNNY     43  22  43 E7        30.34R
FLAGSTAFF      SUNNY     28  12  51 E3        30.42R

$$

REGIONAL REPORTS    NEVADA/IDAHO/WYOMING

CITY           SKY/WX    TMP DP  RH WIND       PRES   REMARKS
LAS VEGAS, NV  SUNNY     47  24  40 NW6       30.37R
ELY            MOSUNNY    8   1  73 S14       30.55R WCI  -8
ELKO           CLOUDY    10   4  76 E5        30.61R WCI   2
POCATELLO, ID  CLOUDY    20  15  81 NE3       30.56R
BURLEY         SUNNY     31  27  85 CALM      30.55R
EVANSTON, WY   CLOUDY    21  13  71 SW12      30.49R WCI   9
ROCK SPRINGS   CLOUDY    27  19  72 W28G38    30.40R WCI  11

$$




USA.gov is the U.S. government's official web portal to all federal, state and local government web resources and services.